This is the latest recevied weather packets stored in our database for station/object DL2GKM-6. If no packets are shown the sender has not sent any weather packets the latest 1 day(s).
| Time | Temp. | Humidity | Pressure | Rain* | Wind** | Luminosity | Snow |
|---|---|---|---|---|---|---|---|
| 1777977631 | 18.33° C | 58% | 1007.5 hPa | 128.52 mm | 0 m/s | - | - |
| 1777977361 | 17.78° C | 58% | 1007.5 hPa | 128.52 mm | 0 m/s | - | - |
| 1777977063 | 18.33° C | 58% | 1007.5 hPa | 128.52 mm | 2.24 m/s, 1° | - | - |
| 1777976821 | 18.33° C | 57% | 1007.5 hPa | 128.52 mm | 1.34 m/s, 353° | - | - |
| 1777976533 | 18.33° C | 57% | 1007.5 hPa | 128.52 mm | 0.45 m/s, 38° | - | - |
| 1777976266 | 18.33° C | 57% | 1007.5 hPa | 128.52 mm | 0.89 m/s, 322° | - | - |
| 1777976016 | 18.33° C | 57% | 1007.6 hPa | 128.52 mm | 0.89 m/s, 330° | - | - |
| 1777975774 | 18.33° C | 57% | 1007.6 hPa | 128.52 mm | 0.89 m/s, 251° | - | - |
| 1777975531 | 18.33° C | 57% | 1007.6 hPa | 128.52 mm | 2.24 m/s, 42° | - | - |
| 1777975255 | 18.33° C | 57% | 1007.7 hPa | 128.52 mm | 0 m/s | - | - |
| 1777974986 | 18.33° C | 57% | 1007.7 hPa | 128.52 mm | 1.34 m/s, 20° | - | - |
| 1777974691 | 18.33° C | 57% | 1007.7 hPa | 128.52 mm | 0 m/s | - | - |
| 1777974446 | 18.33° C | 58% | 1007.7 hPa | 128.52 mm | 2.68 m/s, 352° | - | - |
| 1777974161 | 17.78° C | 58% | 1007.7 hPa | 128.52 mm | 0 m/s | - | - |
| 1777973866 | 17.78° C | 59% | 1007.7 hPa | 128.52 mm | 0 m/s | - | - |
| 1777973611 | 17.22° C | 59% | 1007.7 hPa | 128.52 mm | 0 m/s | - | - |
| 1777973316 | 17.22° C | 60% | 1007.8 hPa | 128.52 mm | 0.45 m/s, 38° | - | - |
| 1777973071 | 17.22° C | 60% | 1007.8 hPa | 128.52 mm | 0.89 m/s, 79° | - | - |
| 1777972826 | 17.22° C | 59% | 1007.9 hPa | 128.52 mm | 0.89 m/s, 62° | - | - |
| 1777972526 | 17.78° C | 59% | 1007.9 hPa | 128.52 mm | 0.45 m/s, 95° | - | - |
| 1777972271 | 17.78° C | 58% | 1007.9 hPa | 128.52 mm | 0.45 m/s, 8° | - | - |
| 1777972001 | 17.78° C | 58% | 1007.9 hPa | 128.52 mm | 0 m/s | - | - |
| 1777971756 | 18.33° C | 58% | 1008 hPa | 128.52 mm | 1.79 m/s, 133° | - | - |
| 1777971470 | 17.78° C | 58% | 1008.1 hPa | 128.52 mm | 2.24 m/s, 8° | - | - |
| 1777971178 | 17.78° C | 58% | 1008.1 hPa | 128.52 mm | 0 m/s | - | - |
* Rain latest 24 hours (hover to see other rain measurements)
** Current wind speed in m/s (hover to see current wind gust speed)